Change the Weather History Date:

Thursday, December 13, 2012

  Actual Average Record
Temperature  
Mean Temperature 36 °F 30 °F  
Max Temperature 39 °F 34 °F 49 °F (1944)
Min Temperature 33 °F 26 °F -11 °F (1964)
Degree Days  
Heating Degree Days 29 35  
Month to date heating degree days 515 447  
Since 1 July heating degree days 3456 3078  
Moisture  
Dew Point 33 °F    
Average Humidity 93    
Maximum Humidity 96    
Minimum Humidity 89    
Precipitation  
Precipitation 0.05 in 0.20 in 1.64 in (1997)
Month to date precipitation 2.24 2.63  
Year to date precipitation 60.74 59.06  
Snow  
Snow T in 0.50 in 4.10 in (1993)
Month to date snowfall 19.9 6.6  
Since 1 July snowfall 36.9 20.5  
Snow Depth 7.00 in    
Sea Level Pressure  
Sea Level Pressure 29.41 in    
Wind  
Wind Speed 9 mph (ENE)    
Max Wind Speed 25 mph    
Max Gust Speed 33 mph    
Visibility 9 miles    
Events Rain , Snow    
T = Trace of Precipitation, MM = Missing Value Source: NWS Daily Summary

Daily Weather History Graph

Daily Weather History Graph

Search for Another Location

Airport or City:

Trip Planner

Search our weather history database for the weather conditions in past years. The results will help you decide how hot, cold, wet, or windy it might be!

Date:

Astronomy

Dec. 13, 2012 Rise Set
Actual Time 8:39 AM AKST 3:05 PM AKST
Civil Twilight 7:47 AM AKST 3:58 PM AKST
Nautical Twilight 6:54 AM AKST 4:51 PM AKST
Astronomical Twilight 6:05 AM AKST 5:40 PM AKST
Moon 8:49 AM AKST (12/13) 4:04 PM AKST (12/13)
Length of Visible Light 8h 11m
Length of Day
6h 26m
New Moon, 0% of the Moon is Illuminated
Dec 13
New Moon
Dec 19
First Quarter
Dec 28
Full
Jan 4
Last Quarter
Jan 11
New

Hourly Weather History & Observations

Time (AKST) Temp. Windchill Dew Point Humidity Pressure Visibility Wind Dir Wind Speed Gust Speed Precip Events Conditions
12:53 AM 36.0 °F 24.4 °F 33.1 °F 89% 29.29 in 6.0 mi East 23.0 mph 32.2 mph 0.01 in Rain Light Rain
1:53 AM 36.0 °F 27.1 °F 33.1 °F 89% 29.30 in 8.0 mi East 13.8 mph 27.6 mph 0.01 in Rain , Snow Light Rain
3:53 AM 36.0 °F 28.5 °F 33.1 °F 89% 29.32 in 10.0 mi ENE 10.4 mph - 0.00 in   Overcast
4:32 AM 36.0 °F 28.5 °F 33.1 °F 89% 29.32 in 10.0 mi NE 10.4 mph - N/A   Overcast
4:53 AM 36.0 °F 28.0 °F 33.1 °F 89% 29.33 in 10.0 mi ENE 11.5 mph - N/A   Overcast
5:37 AM 35.1 °F 26.9 °F 33.1 °F 92% 29.33 in 10.0 mi ENE 11.5 mph - N/A   Overcast
5:53 AM 35.1 °F 26.9 °F 33.1 °F 92% 29.32 in 10.0 mi ENE 11.5 mph - 0.00 in Rain Light Rain
6:53 AM 35.1 °F 27.9 °F 33.1 °F 92% 29.34 in 10.0 mi ESE 9.2 mph - 0.00 in Rain Light Rain
7:53 AM 36.0 °F 28.5 °F 33.1 °F 89% 29.35 in 10.0 mi East 10.4 mph - 0.00 in   Overcast
8:53 AM 35.1 °F 30.1 °F 33.1 °F 92% 29.38 in 7.0 mi NE 5.8 mph - 0.01 in Rain Light Rain
9:10 AM 35.1 °F - 33.1 °F 92% 29.37 in 7.0 mi Calm Calm - 0.02 in Rain Light Rain
9:53 AM 34.0 °F 31.0 °F 33.1 °F 96% 29.38 in 10.0 mi SE 3.5 mph - 0.02 in   Overcast
10:53 AM 35.1 °F 32.2 °F 33.1 °F 92% 29.41 in 10.0 mi Variable 3.5 mph - N/A   Overcast
11:53 AM 36.0 °F 32.1 °F 33.1 °F 89% 29.41 in 10.0 mi Variable 4.6 mph - N/A   Mostly Cloudy
12:53 PM 36.0 °F 33.3 °F 33.1 °F 89% 29.43 in 10.0 mi South 3.5 mph - 0.00 in Rain Light Rain
2:53 PM 35.6 °F 31.7 °F 32.0 °F 87% 29.45 in 10.0 mi NE 4.6 mph - N/A   Mostly Cloudy
3:53 PM 34.0 °F 27.2 °F 32.0 °F 92% 29.47 in 10.0 mi NE 8.1 mph - 0.00 in Rain Light Rain
4:53 PM 35.1 °F 29.3 °F 32.0 °F 89% 29.48 in 10.0 mi ENE 6.9 mph - 0.00 in   Overcast
5:53 PM 35.1 °F 27.4 °F 32.0 °F 89% 29.48 in 10.0 mi ENE 10.4 mph - N/A   Overcast
6:53 PM 35.1 °F 27.9 °F 32.0 °F 89% 29.50 in 10.0 mi ENE 9.2 mph - N/A   Overcast
7:53 PM 35.1 °F 26.4 °F 32.0 °F 89% 29.52 in 8.0 mi East 12.7 mph - 0.00 in Rain , Snow Light Rain
8:53 PM 35.1 °F 26.4 °F 32.0 °F 89% 29.53 in 10.0 mi East 12.7 mph - 0.00 in Rain Light Rain
9:53 PM 35.1 °F 28.6 °F 32.0 °F 89% 29.54 in 10.0 mi East 8.1 mph - 0.00 in   Overcast
10:53 PM 34.0 °F 28.0 °F 32.0 °F 92% 29.55 in 10.0 mi ENE 6.9 mph - 0.00 in   Overcast
11:53 PM 35.1 °F 27.4 °F 32.0 °F 89% 29.56 in 10.0 mi ENE 10.4 mph - 0.00 in   Overcast